Weather in Bol'shiye Klyuchi

Russia / Mari El Republic     57°00′32″N   48°59′47″E
temp.,
°C
wind,
m/s
gust,
m/s
humid.,
%
clouds,
%
prec.,
mm/h
press.,
hPa
HPBL,
m
26 february, fri
fri2600:00−20se599693 0.0 1018306
03:00−20se499693 0.1 1019274
06:00−22se499894 0.0 1018190
09:00−20se599687 0.0 1017288
12:00−16sse6109299 0.0 1016461
15:00−15sse71392100 0.1 1013545
18:00−15se91690100 0.1 1008612
21:00−14se101694100 1.9 1004610
27 february, sat
sat2700:00−14se91594100 4.9 1000674
03:00−13ese71294100 6.9 999542
06:00−13ese71294100 0.7 998470
09:00−13e71194100 1.6 999487
12:00−11ene71093100 0.9 999585
15:00−11ne6993100 1.6 1002605
18:00−13ne51094100 0.4 1003427
21:00−13nne5109595 0.6 1005330
28 february, sun
sun2800:00−16nne499696 0.1 1006200
03:00−21n479889 0.1 1009125
06:00−22n479862 0.0 1010111
09:00−20nne469659 0.0 1011229
12:00−17n469364 0.0 1012342
15:00−15n479181 0.0 1013518
18:00−20n349790 0.0 101546
21:00−21n349855 0.0 101835
1 march, mon
mon100:00−22n339956 0.0 101923
03:00−23n239946 0.0 102120
06:00−23nnw239915 0.0 102220
09:00−20nw11967 0.0 102367
12:00−15w238833 0.0 1022240
15:00−13wsw369245 0.0 1021292
18:00−16sw499617 0.0 1019138
21:00−14sw6129458 0.0 1016285
2 march, tue
tue200:00−13sw71294100 0.2 1012330
03:00−10sw71294100 0.9 1008415
06:00−8sw61195100 0.7 1005350
09:00−4w5895100 1.4 1004311
12:00−1nw579492 0.1 1003622
15:00−1nw478996 0.2 1002650
18:00−3w3796100 0.1 1001152
21:00−3wnw5109798 0.3 1002345